User: anonymous   Login
Location: Camp at the Woods
(43.2055°N, 93.0905°W)
Time: 17:28:47
(UTC+00:00)
Language:

Cosmos 2237 Rocket - Orbit

View from above orbital plane
View from above orbital plane
View from above satellite
View from above satellite

Ground track
Ground track

The orbit data is extracted from the following two-line orbital elements,

1 22566U 93016B   24106.53907361  .00000090  00000-0  71012-4 0  9991
2 22566  71.0075 230.8086 0012253 293.0101  66.9729 14.15117560604100
Epoch (UTC): 15 April 2024 12:56:15
Eccentricity: 0.0012253
inclination: 71.0075°
perigee height: 833 km
apogee height: 851 km
right ascension of ascending node: 230.8086°
argument of perigee: 293.0101°
revolutions per day: 14.15117560
mean anomaly at epoch: 66.9729°
orbit number at epoch: 60410

The dashed part of the orbit path shows where the satellite is in the earth's shadow,  

DLR